Waarnemingen

Advertentie
Mijn weer
Lanveoc Poulmic, Frankrijk (7109): temperatuur & dauwpunt: 18.10.2017 06:00:00 - 24.10.2017 06:00:00 (CEST)Lanveoc Poulmic, Frankrijk (7109): windsnelheid & windstoten: 18.10.2017 06:00:00 - 24.10.2017 06:00:00 (CEST)Lanveoc Poulmic, Frankrijk (7109): windrichting: 18.10.2017 06:00:00 - 24.10.2017 06:00:00 (CEST)Lanveoc Poulmic, Frankrijk (7109): luchtdruk: 18.10.2017 06:00:00 - 24.10.2017 06:00:00 (CEST)Lanveoc Poulmic, Frankrijk (7109): zicht: 18.10.2017 06:00:00 - 24.10.2017 06:00:00 (CEST)Lanveoc Poulmic, Frankrijk (7109): neerslag: 18.10.2017 06:00:00 - 24.10.2017 06:00:00 (CEST)
Datum & Tijd tt [°C] td [°C] ff [km/u] ff [kn] fx [km/u] fx [kn] dd ppp [hPa] vv [km] rr [mm]
24.10.2017 06:00:00 - - - - - - - - - -
24.10.2017 05:00:00 14,6 14,3 21 11 39 21 ZW 1023,2 1,1 -
24.10.2017 04:00:00 14,6 14,1 21 11 35 19 ZW 1022,9 2,5 0,3
24.10.2017 03:00:00 15,0 14,5 26 14 37 20 WZW 1022,8 1,2 0,4
24.10.2017 02:00:00 15,2 14,7 24 13 39 21 ZW 1022,7 1,2 -
24.10.2017 01:00:00 15,2 14,7 21 11 37 20 ZW 1022,8 2,0 0,6
24.10.2017 00:00:00 15,4 14,9 26 14 37 20 WZW 1022,9 2,6 0,6
23.10.2017 23:00:00 15,3 14,8 24 13 44 24 WZW 1022,7 2,8 -
23.10.2017 22:00:00 15,3 14,8 24 13 41 22 ZW 1022,6 2,3 0,6
23.10.2017 21:00:00 15,2 14,7 26 14 41 22 WZW 1022,4 4,8 0,6
23.10.2017 20:00:00 15,2 14,7 26 14 39 21 WZW 1022,3 5 -
23.10.2017 19:00:00 15,2 14,7 26 14 48 26 WZW 1021,8 3,2 0,4
23.10.2017 18:00:00 15,2 14,7 26 14 42 23 WZW 1021,6 1,4 0,2
23.10.2017 17:00:00 15,1 14,6 22 12 42 23 WZW 1021,5 1,3 -
23.10.2017 16:00:00 15,1 14,6 26 14 44 24 WZW 1021,6 1,0 0,2
23.10.2017 15:00:00 15,0 14,4 28 15 50 27 ZW 1021,5 3,6 0,2
23.10.2017 14:00:00 14,8 14,2 29 16 50 27 WZW 1021,7 3,1 -
23.10.2017 13:00:00 14,6 14,0 28 15 48 26 ZW 1021,8 2,4 0,0
23.10.2017 12:00:00 14,4 13,6 28 15 50 27 ZW 1021,7 3,0 0,0
23.10.2017 11:00:00 14,3 13,3 31 17 55 30 ZW 1021,7 3,2 -
23.10.2017 10:00:00 14,4 12,9 28 15 46 25 ZW 1021,8 4,1 0,0
23.10.2017 09:00:00 14,1 12,5 24 13 41 22 ZZW 1021,6 10 0,0
23.10.2017 08:00:00 14,1 12,5 28 15 44 24 ZW 1021,8 8 -
23.10.2017 07:00:00 14,3 11,8 26 14 41 22 ZW 1022,0 10 0,0
23.10.2017 06:00:00 14,3 11,6 26 14 41 22 ZW 1022,3 10 0,0
23.10.2017 05:00:00 14,1 11,1 24 13 39 21 ZW 1022,4 10 -
23.10.2017 04:00:00 13,7 10,7 21 11 34 18 ZZW 1022,8 10 0,0
23.10.2017 03:00:00 13,6 10,6 18 10 29 16 ZW 1023,4 10 0,0
23.10.2017 02:00:00 13,3 10,8 16 9 24 13 ZW 1023,6 10 -
23.10.2017 01:00:00 13,0 10,4 15 8 26 14 ZW 1024,1 10 0,0
23.10.2017 00:00:00 12,9 9,9 15 8 24 13 ZZW 1024,3 10 0,0
22.10.2017 23:00:00 12,9 9,3 15 8 22 12 ZW 1024,4 10 -
22.10.2017 22:00:00 12,9 9,3 15 8 22 12 ZW 1024,6 10 0,0
22.10.2017 21:00:00 12,9 9,0 13 7 26 14 WZW 1025,1 10 0,0
22.10.2017 20:00:00 12,7 8,4 15 8 22 12 W 1024,9 10 -
22.10.2017 19:00:00 12,6 8,5 13 7 22 12 W 1024,6 10 0,0
22.10.2017 18:00:00 12,5 9,1 13 7 35 19 W 1024,7 10 0,0
22.10.2017 17:00:00 13,2 8,3 13 7 31 17 W 1024,6 10 -
22.10.2017 16:00:00 13,7 7,0 22 12 41 22 WNW 1024,9 10 0,0
22.10.2017 15:00:00 13,6 7,4 24 13 41 22 WNW 1024,9 10 0,0
22.10.2017 14:00:00 13,1 8,4 21 11 42 23 NW 1024,9 10 -
22.10.2017 13:00:00 13,8 7,8 26 14 41 22 WNW 1024,5 10 0,2
22.10.2017 12:00:00 13,4 7,2 26 14 42 23 WNW 1024,0 10 0,0
22.10.2017 11:00:00 12,6 7,7 26 14 42 23 WNW 1024,0 10 -
22.10.2017 10:00:00 11,4 7,5 18 10 46 25 NW 1023,6 10 0,0
22.10.2017 09:00:00 10,6 6,3 26 14 42 23 NW 1022,8 10 0,0
22.10.2017 08:00:00 10,6 6,5 26 14 48 26 WNW 1022,6 10 -
22.10.2017 07:00:00 11,2 6,5 29 16 52 28 WNW 1022,2 10 0,2
22.10.2017 06:00:00 10,4 6,5 28 15 52 28 WNW 1021,7 10 0,0
22.10.2017 05:00:00 11,2 5,9 35 19 55 30 WNW 1021,1 10 -
22.10.2017 04:00:00 11,2 5,9 31 17 50 27 WNW 1020,8 10 0,0
22.10.2017 03:00:00 11,3 6,8 31 17 50 27 WNW 1020,3 10 0,0
22.10.2017 02:00:00 11,1 6,2 29 16 54 29 W 1020,1 10 -
22.10.2017 01:00:00 11,1 6,6 29 16 57 31 WNW 1020,0 10 0,0
22.10.2017 00:00:00 11,2 7,1 34 18 76 41 WNW 1019,6 10 0,0
21.10.2017 23:00:00 11,7 6,6 35 19 67 36 W 1018,5 10 -
21.10.2017 22:00:00 11,0 6,3 35 19 61 33 WNW 1018,2 10 0,0
21.10.2017 21:00:00 12,3 6,3 39 21 67 36 W 1017,3 10 0,0
21.10.2017 20:00:00 12,0 6,7 37 20 67 36 W 1016,7 10 -
21.10.2017 19:00:00 11,4 6,5 39 21 74 40 W 1016,0 10 0,0
21.10.2017 18:00:00 13,0 7,0 41 22 72 39 W 1015,5 10 0,0
21.10.2017 17:00:00 12,6 7,3 34 18 67 36 W 1015,1 10 -
21.10.2017 16:00:00 14,0 6,4 42 23 67 36 W 1014,2 10 0,2
21.10.2017 15:00:00 14,4 7,2 46 25 67 36 W 1013,6 10 0,0
21.10.2017 14:00:00 13,4 8,7 34 18 65 35 W 1013,3 10 -
21.10.2017 13:00:00 13,8 8,6 35 19 67 36 WZW 1012,7 10 0,0
21.10.2017 12:00:00 14,4 7,7 39 21 68 37 WZW 1012,0 10 0,2
21.10.2017 11:00:00 13,2 7,6 42 23 68 37 WZW 1011,7 10 -
21.10.2017 10:00:00 12,7 7,4 42 23 68 37 W 1011,0 10 0,8
21.10.2017 09:00:00 13,5 7,9 37 20 72 39 WZW 1010,0 10 0,6
21.10.2017 08:00:00 12,6 7,7 34 18 72 39 WZW 1009,5 10 -
21.10.2017 07:00:00 13,3 8,6 31 17 68 37 WZW 1008,9 10 1,0
21.10.2017 06:00:00 13,6 8,0 42 23 68 37 WZW 1008,4 10 1,0
21.10.2017 05:00:00 13,5 8,8 35 19 65 35 WZW 1008,1 10 -
21.10.2017 04:00:00 13,7 9,3 34 18 55 30 WZW 1007,7 10 1,0
21.10.2017 03:00:00 13,3 10,8 28 15 44 24 ZW 1007,3 10 1,0
21.10.2017 02:00:00 12,7 11,6 24 13 55 30 ZW 1007,1 10 -
21.10.2017 01:00:00 13,7 11,2 26 14 42 23 ZZW 1006,0 10 0,6
21.10.2017 00:00:00 12,8 11,4 22 12 37 20 Z 1006,3 10 0,6
20.10.2017 23:00:00 13,3 11,4 29 16 61 33 WZW 1006,8 7 -
20.10.2017 22:00:00 15,9 15,3 35 19 72 39 ZZW 1005,1 3,6 0,2
20.10.2017 21:00:00 15,8 14,3 41 22 67 36 Z 1005,5 3,4 0,0
20.10.2017 20:00:00 15,4 14,1 37 20 59 32 Z 1006,4 10 -
20.10.2017 19:00:00 15,5 13,2 35 19 68 37 Z 1007,4 10 0,0
20.10.2017 18:00:00 15,6 12,5 35 19 57 31 Z 1008,2 10 0,0
20.10.2017 17:00:00 15,6 12,2 34 18 57 31 Z 1009,1 10 -
20.10.2017 16:00:00 16,3 11,4 31 17 54 29 Z 1009,8 10 0,0
20.10.2017 15:00:00 16,0 10,5 29 16 50 27 Z 1010,9 10 0,0
20.10.2017 14:00:00 15,8 10,1 28 15 44 24 Z 1011,6 10 -
20.10.2017 13:00:00 15,5 9,2 24 13 39 21 ZZW 1012,4 10 0,0
20.10.2017 12:00:00 15,7 9,4 21 11 34 18 ZZW 1012,5 10 0,0
20.10.2017 11:00:00 14,7 8,9 21 11 29 16 ZW 1012,7 10 -
20.10.2017 10:00:00 12,6 7,3 11 6 22 12 ZW 1012,5 10 0,0
20.10.2017 09:00:00 11,5 6,4 15 8 22 12 W 1012,3 10 0,0
20.10.2017 08:00:00 12,0 8,0 15 8 - - W - 10 -
20.10.2017 07:00:00 - - - - - - - - - -
20.10.2017 06:00:00 - - - - - - - - - -
20.10.2017 05:00:00 - - - - - - - - - -
20.10.2017 04:00:00 11,9 8,0 22 12 39 21 W 1009,5 10 0,4
20.10.2017 03:00:00 11,6 7,5 24 13 39 21 W 1008,8 10 0,2
20.10.2017 02:00:00 11,8 8,1 24 13 50 27 W 1008,4 10 -
20.10.2017 01:00:00 12,2 8,7 21 11 44 24 W 1007,5 10 0,2
20.10.2017 00:00:00 12,1 8,0 29 16 46 25 W 1006,8 10 0,2
19.10.2017 23:00:00 11,9 8,6 31 17 52 28 W 1005,9 10 -
19.10.2017 22:00:00 12,6 9,2 26 14 48 26 W 1004,9 10 0,0
19.10.2017 21:00:00 12,4 10,1 24 13 41 22 W 1003,9 10 0,2
19.10.2017 20:00:00 13,1 10,8 22 12 50 27 W 1002,5 10 -
19.10.2017 19:00:00 13,8 11,5 29 16 52 28 W 1001,3 10 0,4
19.10.2017 18:00:00 14,1 12,8 26 14 57 31 W 1000,1 10 3,0
19.10.2017 17:00:00 14,8 14,2 31 17 65 35 ZZW 999,2 2,0 -
19.10.2017 16:00:00 14,5 13,7 37 20 68 37 Z 999,7 2,4 4,0
19.10.2017 15:00:00 15,2 13,2 31 17 63 34 Z 1001,0 10 0,2
19.10.2017 14:00:00 15,4 13,2 35 19 65 35 Z 1002,2 10 -
19.10.2017 13:00:00 15,3 13,0 31 17 54 29 Z 1003,4 10 0,0
19.10.2017 12:00:00 15,7 14,1 28 15 44 24 Z 1004,3 10 0,0
19.10.2017 11:00:00 14,4 13,4 18 10 29 16 Z 1004,9 10 -
19.10.2017 10:00:00 13,5 12,9 13 7 21 11 Z 1005,2 10 0,0
19.10.2017 09:00:00 12,3 11,5 9 5 16 9 Z 1005,2 10 0,0
19.10.2017 08:00:00 11,8 11,0 8 4 11 6 Z 1004,9 5 -
19.10.2017 07:00:00 11,5 10,6 8 4 11 6 Z 1005,4 10 0,0
19.10.2017 06:00:00 11,4 10,5 8 4 13 7 O 1005,9 6 0,0
19.10.2017 05:00:00 12,3 11,4 11 6 15 8 W 1006,9 7 -
19.10.2017 04:00:00 11,7 10,8 5 3 8 4 WZW 1007,5 10 0,2
19.10.2017 03:00:00 10,1 8,2 0 0 13 7 N 1007,8 10 0,0
19.10.2017 02:00:00 12,5 11,2 8 4 13 7 O 1007,9 10 -
19.10.2017 01:00:00 12,6 11,5 8 4 11 6 O 1008,6 8 0,0
19.10.2017 00:00:00 13,0 11,6 8 4 13 7 O 1009,4 10 0,0
18.10.2017 23:00:00 12,9 11,6 8 4 13 7 ONO 1009,5 10 -
18.10.2017 22:00:00 11,8 10,4 5 3 34 18 - 1009,8 10 0,0
18.10.2017 21:00:00 11,7 10,3 5 3 31 17 NNW 1009,9 10 0,0
18.10.2017 20:00:00 12,3 10,9 5 3 8 4 NNW 1010,1 10 -
18.10.2017 19:00:00 14,8 11,4 4 2 8 4 NNW 1009,7 10 0,0
18.10.2017 18:00:00 16,8 12,3 5 3 9 5 N 1009,6 10 0,0
18.10.2017 17:00:00 18,1 12,5 4 2 13 7 - 1009,5 10 -
18.10.2017 16:00:00 17,2 11,9 9 5 21 11 ZZW 1009,7 10 0,0
18.10.2017 15:00:00 17,9 13,0 11 6 21 11 Z 1010,1 10 0,0
18.10.2017 14:00:00 17,7 13,6 11 6 21 11 ZZW 1010,6 10 -
18.10.2017 13:00:00 16,8 12,9 11 6 16 9 ZZW 1010,9 10 0,0
18.10.2017 12:00:00 16,8 13,5 9 5 16 9 Z 1010,8 10 0,0
18.10.2017 11:00:00 15,4 13,1 11 6 15 8 ZZO 1010,8 10 -
18.10.2017 10:00:00 13,3 12,5 8 4 13 7 Z 1010,9 10 0,0
18.10.2017 09:00:00 11,4 10,5 8 4 13 7 ZO 1010,6 10 0,0
18.10.2017 08:00:00 11,6 10,5 5 3 11 6 ZZO 1010,4 10 -
18.10.2017 07:00:00 12,4 11,3 8 4 9 5 Z 1010,6 10 0,0
18.10.2017 06:00:00 12,5 11,6 9 5 13 7 ZW 1010,7 10 0,0

tt = temperatuur
td = dauwpunt
ff = windsnelheid
fx = windstoten
dd = windrichting
ppp = luchtdruk
vv = zicht
rr = neerslag

Weerstations in de omgeving